Location: ???????
(52.3000°N, 54.4667°E)
Time: 21:15:29
(UTC+00:00)

STARLINK-1066 - Pass Details

Date: 24 January 2020
Orbit: 348 x 351 km, 53.0° (Epoch: 17 February)

Event Time Altitude Azimuth Distance (km) Brightness Sun altitude
Rises 13:53:00 0° 259° (W) 2,170 8.8 -9.1°
Reaches altitude 10° 13:55:01 10° 260° (W) 1,328 7.2 -9.4°
Maximum altitude 13:57:58 86° 350° (N) 362 2.7 -9.8°
Enters shadow 14:00:14 16° 79° (E) 1,039 4.4 -10.1°
